When you browse on this site, cookies collect data to enhance your experience and personalize the content and advertising you see.
Visit our Privacy Policy to learn more. By continuing to use the site, you agree to this use of cookies and data.
  • în România
  • Lista ţărilor
  • Pe 7 zile
  • Temperatura apei
  • Meteo pe hartă
  • Widget-uri
  • user-avatar
    Intrare

    Meteo pe oră la Mayrhofen

    Astăzi, 20 Octombrie, Duminică

    Timp Temperatura Precipitaţii Vânt Presiune Umiditate
    00:00 +5°C° 0 mm 4 m/s 616 mmHg 93%
    01:00 +6°C° 0 mm 4 m/s 616 mmHg 94%
    02:00 +6°C° 0 mm 4 m/s 616 mmHg 94%
    03:00 +6°C° 0 mm 4 m/s 616 mmHg 94%
    04:00 +6°C° 0 mm 4 m/s 615 mmHg 94%
    05:00 +6°C° 0 mm 4 m/s 616 mmHg 93%
    06:00 +6°C° 0 mm 4 m/s 616 mmHg 93%
    07:00 +6°C° 0 mm 4 m/s 616 mmHg 94%
    08:00 +7°C° 0.1 mm 4 m/s 617 mmHg 90%
    09:00 +8°C° 0.1 mm 4 m/s 617 mmHg 86%
    10:00 +10°C° 0.1 mm 4 m/s 618 mmHg 82%
    11:00 +10°C° 0.1 mm 4 m/s 618 mmHg 79%
    12:00 +11°C° 0.1 mm 4 m/s 618 mmHg 75%
    13:00 +11°C° 0.1 mm 4 m/s 618 mmHg 71%
    14:00 +11°C° 0 mm 4 m/s 618 mmHg 74%
    15:00 +11°C° 0 mm 4 m/s 617 mmHg 77%
    16:00 +10°C° 0 mm 4 m/s 617 mmHg 79%
    17:00 +8°C° 0 mm 4 m/s 617 mmHg 83%
    18:00 +7°C° 0 mm 4 m/s 617 mmHg 87%
    19:00 +6°C° 0 mm 4 m/s 617 mmHg 90%
    20:00 +6°C° 0 mm 4 m/s 617 mmHg 90%
    21:00 +6°C° 0 mm 4 m/s 617 mmHg 90%
    22:00 +6°C° 0 mm 4 m/s 618 mmHg 90%
    23:00 +6°C° 0 mm 4 m/s 618 mmHg 90%

    Mâine, 21 Octombrie, Luni

    Timp Temperatura Precipitaţii Vânt Presiune Umiditate
    00:00 +6°C° 0 mm 4 m/s 618 mmHg 90%
    01:00 +7°C° 0 mm 3 m/s 618 mmHg 90%
    02:00 +7°C° 0 mm 3 m/s 618 mmHg 90%
    03:00 +7°C° 0 mm 3 m/s 618 mmHg 91%
    04:00 +7°C° 0 mm 3 m/s 618 mmHg 91%
    05:00 +7°C° 0 mm 3 m/s 618 mmHg 90%
    06:00 +7°C° 0 mm 3 m/s 618 mmHg 89%
    07:00 +7°C° 0 mm 3 m/s 619 mmHg 88%
    08:00 +8°C° 0 mm 3 m/s 620 mmHg 85%
    09:00 +9°C° 0 mm 3 m/s 620 mmHg 81%
    10:00 +10°C° 0 mm 3 m/s 621 mmHg 78%
    11:00 +11°C° 0 mm 3 m/s 621 mmHg 77%
    12:00 +12°C° 0 mm 2 m/s 622 mmHg 75%
    13:00 +13°C° 0 mm 2 m/s 622 mmHg 74%
    14:00 +13°C° 0.1 mm 2 m/s 622 mmHg 77%
    15:00 +13°C° 0.1 mm 2 m/s 622 mmHg 79%
    16:00 +12°C° 0.1 mm 2 m/s 622 mmHg 82%
    17:00 +10°C° 0 mm 2 m/s 622 mmHg 86%
    18:00 +9°C° 0 mm 2 m/s 621 mmHg 90%
    19:00 +7°C° 0 mm 2 m/s 621 mmHg 95%
    20:00 +7°C° 0 mm 2 m/s 621 mmHg 94%
    21:00 +7°C° 0 mm 2 m/s 621 mmHg 94%
    22:00 +7°C° 0 mm 2 m/s 621 mmHg 94%
    23:00 +7°C° 0 mm 2 m/s 622 mmHg 94%

    Poimâine, 22 Octombrie, Marţi

    Timp Temperatura Precipitaţii Vânt Presiune Umiditate
    00:00 +7°C° 0 mm 2 m/s 622 mmHg 94%
    01:00 +7°C° 0 mm 2 m/s 622 mmHg 94%
    02:00 +7°C° 0 mm 2 m/s 622 mmHg 94%
    03:00 +7°C° 0 mm 1 m/s 621 mmHg 94%
    04:00 +7°C° 0 mm 1 m/s 621 mmHg 94%
    05:00 +7°C° 0 mm 1 m/s 621 mmHg 94%
    06:00 +7°C° 0 mm 1 m/s 621 mmHg 93%
    07:00 +6°C° 0 mm 1 m/s 621 mmHg 92%
    08:00 +8°C° 0 mm 1 m/s 622 mmHg 85%
    09:00 +10°C° 0 mm 1 m/s 623 mmHg 78%
    10:00 +12°C° 0 mm 1 m/s 623 mmHg 72%
    11:00 +13°C° 0 mm 1 m/s 624 mmHg 67%
    12:00 +14°C° 0 mm 2 m/s 624 mmHg 63%
    13:00 +15°C° 0 mm 2 m/s 624 mmHg 58%
    14:00 +14°C° 0 mm 2 m/s 624 mmHg 64%
    15:00 +14°C° 0 mm 1 m/s 623 mmHg 69%
    16:00 +13°C° 0 mm 1 m/s 623 mmHg 74%
    17:00 +10°C° 0 mm 2 m/s 622 mmHg 77%
    18:00 +9°C° 0 mm 2 m/s 622 mmHg 80%
    19:00 +8°C° 0 mm 2 m/s 621 mmHg 83%
    20:00 +7°C° 0 mm 2 m/s 621 mmHg 82%
    21:00 +7°C° 0 mm 2 m/s 621 mmHg 81%
    22:00 +7°C° 0 mm 2 m/s 621 mmHg 80%
    23:00 +7°C° 0 mm 3 m/s 620 mmHg 80%

    23 Octombrie, Miercuri

    Timp Temperatura Precipitaţii Vânt Presiune Umiditate
    00:00 +5°C° 0 mm 3 m/s 620 mmHg 79%
    01:00 +5°C° 0 mm 3 m/s 620 mmHg 78%
    02:00 +5°C° 0 mm 3 m/s 620 mmHg 77%
    03:00 +5°C° 0 mm 3 m/s 619 mmHg 76%
    04:00 +5°C° 0 mm 3 m/s 619 mmHg 75%
    05:00 +5°C° 0 mm 3 m/s 619 mmHg 73%
    06:00 +5°C° 0 mm 3 m/s 619 mmHg 71%
    07:00 +5°C° 0 mm 3 m/s 618 mmHg 69%
    08:00 +8°C° 0 mm 3 m/s 619 mmHg 62%
    09:00 +10°C° 0 mm 3 m/s 620 mmHg 55%
    10:00 +13°C° 0 mm 3 m/s 621 mmHg 48%
    11:00 +14°C° 0 mm 3 m/s 621 mmHg 45%
    12:00 +14°C° 0 mm 3 m/s 621 mmHg 42%
    13:00 +16°C° 0 mm 3 m/s 621 mmHg 40%
    14:00 +14°C° 0 mm 3 m/s 620 mmHg 45%
    15:00 +13°C° 0 mm 3 m/s 619 mmHg 50%
    16:00 +12°C° 0 mm 3 m/s 619 mmHg 56%
    17:00 +10°C° 0 mm 3 m/s 618 mmHg 61%
    18:00 +9°C° 0 mm 3 m/s 617 mmHg 66%
    19:00 +7°C° 0 mm 3 m/s 617 mmHg 71%
    20:00 +7°C° 0 mm 3 m/s 617 mmHg 73%
    21:00 +5°C° 0 mm 3 m/s 617 mmHg 74%
    22:00 +5°C° 0 mm 3 m/s 617 mmHg 76%
    23:00 +5°C° 0 mm 3 m/s 616 mmHg 76%

    24 Octombrie, Joi

    Timp Temperatura Precipitaţii Vânt Presiune Umiditate
    00:00 +5°C° 0 mm 3 m/s 616 mmHg 76%
    01:00 +5°C° 0 mm 3 m/s 616 mmHg 76%
    02:00 +5°C° 0 mm 3 m/s 616 mmHg 75%
    03:00 +5°C° 0 mm 3 m/s 616 mmHg 74%
    04:00 +5°C° 0 mm 3 m/s 616 mmHg 73%
    05:00 +5°C° 0 mm 3 m/s 616 mmHg 71%
    06:00 +5°C° 0 mm 3 m/s 616 mmHg 69%
    07:00 +5°C° 0 mm 3 m/s 616 mmHg 68%
    08:00 +8°C° 0 mm 3 m/s 617 mmHg 62%
    09:00 +10°C° 0 mm 3 m/s 617 mmHg 56%
    10:00 +13°C° 0 mm 2 m/s 618 mmHg 51%
    11:00 +14°C° 0 mm 2 m/s 618 mmHg 48%
    12:00 +15°C° 0 mm 2 m/s 619 mmHg 46%
    13:00 +16°C° 0 mm 2 m/s 619 mmHg 44%
    14:00 +15°C° 0 mm 2 m/s 618 mmHg 49%
    15:00 +14°C° 0 mm 2 m/s 618 mmHg 55%
    16:00 +13°C° 0 mm 2 m/s 617 mmHg 61%
    17:00 +12°C° 0 mm 2 m/s 617 mmHg 67%
    18:00 +9°C° 0 mm 2 m/s 617 mmHg 74%
    19:00 +7°C° 0 mm 2 m/s 616 mmHg 80%
    20:00 +7°C° 0.1 mm 2 m/s 616 mmHg 82%
    21:00 +7°C° 0.1 mm 2 m/s 617 mmHg 84%
    22:00 +7°C° 0.1 mm 2 m/s 617 mmHg 87%
    23:00 +6°C° 0 mm 2 m/s 616 mmHg 88%

    25 Octombrie, Vineri

    Timp Temperatura Precipitaţii Vânt Presiune Umiditate
    00:00 +6°C° 0 mm 1 m/s 616 mmHg 89%
    01:00 +6°C° 0 mm 1 m/s 616 mmHg 90%
    02:00 +6°C° 0 mm 1 m/s 616 mmHg 90%
    03:00 +4°C° 0 mm 0 m/s 616 mmHg 91%
    04:00 +4°C° 0 mm 0 m/s 615 mmHg 91%
    05:00 +4°C° 0 mm 0 m/s 616 mmHg 91%
    06:00 +4°C° 0 mm 0 m/s 616 mmHg 91%
    07:00 +5°C° 0 mm 1 m/s 616 mmHg 92%
    08:00 +7°C° 0 mm 1 m/s 617 mmHg 85%
    09:00 +9°C° 0 mm 1 m/s 618 mmHg 79%
    10:00 +11°C° 0 mm 1 m/s 619 mmHg 72%
    11:00 +12°C° 0 mm 1 m/s 619 mmHg 69%
    12:00 +13°C° 0 mm 1 m/s 619 mmHg 66%
    13:00 +13°C° 0 mm 1 m/s 620 mmHg 62%
    14:00 +13°C° 0 mm 1 m/s 619 mmHg 66%
    15:00 +12°C° 0 mm 1 m/s 619 mmHg 70%
    16:00 +12°C° 0 mm 1 m/s 619 mmHg 74%
    17:00 +10°C° 0 mm 1 m/s 618 mmHg 79%
    18:00 +9°C° 0 mm 1 m/s 618 mmHg 85%
    19:00 +7°C° 0 mm 1 m/s 617 mmHg 90%
    20:00 +7°C° 0 mm 1 m/s 617 mmHg 89%
    21:00 +7°C° 0 mm 1 m/s 617 mmHg 88%
    22:00 +6°C° 0 mm 1 m/s 617 mmHg 88%
    23:00 +5°C° 0 mm 2 m/s 617 mmHg 87%
    Arată mai mult